Other Surface Observations
Issued by NWS

Home | Current Version | Previous Version | Text Only | Print | Product List | Glossary On
Versions: 1 2 3 4 5 6 7 8 9 10 11 12 13 14 15 16 17 18 19 20 21 22 23 24 25 26 27 28 29 30 31 32 33 34 35 36 37 38 39 40 41 42 43 44 45 46 47 48 49 50
128
SXUS52 KTAE 141518
OSOTAE
OSOTAE
North Florida/South Alabama/Southwest Georgia Weather Roundup
National Weather Service Tallahassee Florida
1000 AM EST SUN FEB 14 2016

Note: "fair" indicates few or no clouds below 12,000 feet with no
significant weather and/or obstructions to visibility.

!FLZ017-115-028-034-025-141600
...North Florida...

CITY           SKY/WX    TMP DP  RH WIND       PRES   REMARKS
TALLAHASSEE    PTSUNNY   48  15  26 E5        30.35S
APALACHICOLA   MOSUNNY   50  32  50 E10       30.33S
PERRY          MOSUNNY   47  26  42 NE5       30.35F
CROSS CITY       N/A     51  29  42 NE9       30.33F
JACKSONVILLE   PTSUNNY   52  39  61 NE12      30.35S
$$

!FLZ112-006-005-002-011-141600
...Florida Panhandle...

CITY           SKY/WX    TMP DP  RH WIND       PRES   REMARKS
MARIANNA       CLOUDY    43  18  36 VRB5      30.35R WCI  40
BONIFAY        NOT AVBL
PANAMA CITY NW FAIR      46  17  31 E7        30.32S WCI  42
TYNDALL AFB    NOT AVBL
TYND DRONE APT NOT AVBL
DE FUNIAK SPR  FAIR      43  17  34 E10       30.34R WCI  37
EGLIN AFB      NOT AVBL
DESTIN         SUNNY     48  22  35 E9        30.32R WCI  44
HURLBURT       NOT AVBL
CRESTVIEW      SUNNY     46  15  28 VRB7      30.34R WCI  42
PENSACOLA      SUNNY     48  28  46 E12G20    30.30R WCI  43
$$

!ALZ063-066-141600
...South Alabama...

CITY           SKY/WX    TMP DP  RH WIND       PRES   REMARKS
DOTHAN         SUNNY     41  16  36 E8        30.38R WCI  36
OZARK CAIRNS   NOT AVBL
FT RUCKER HELI SUNNY     42  15  33 VRB3      30.34R
RUCKER HELI 3  NOT AVBL
RUCKER HELI 2  NOT AVBL
FLORALA APT    NOT AVBL
ANDALUSIA      SUNNY     47  14  26 SE10      30.32S WCI  42
TROY           MOSUNNY   42  14  32 E10       30.34S WCI  36
EUFALA         FAIR      42  16  34 E8        30.35S WCI  37
MOBILE         MOSUNNY   49  32  52 E10       30.28R WCI  45
$$

!GAZ120>161-141600
...Southwest and South Central Georgia...

CITY           SKY/WX    TMP DP  RH WIND       PRES   REMARKS
THOMASVILLE    FAIR      43  25  49 E6        30.36F WCI  39
BAINBRIDGE     MOSUNNY   43  21  42 E6        30.35F WCI  39
MOODY AFB      SUNNY     45  27  50 E8        30.35R WCI  40
VALDOSTA       SUNNY     46  28  49 E6        30.36S WCI  43
MOULTRIE       SUNNY     43  23  45 SE5       30.36S WCI  40
BLAKELY        SUNNY     45  19  36 E7        30.37R WCI  41
ALBANY         SUNNY     42  18  37 E7        30.39S WCI  38
TIFTON         FAIR      41  28  60 E7        30.37R WCI  36
FITZGERALD     FAIR      41  25  53 E7        30.40S WCI  37
CORDELE        FAIR      42  23  47 E9        30.40R WCI  36
AMERICUS       FAIR      37  23  56 E6        30.40R WCI  33
HOMERVILLE     FAIR      46  34  61 E6        30.38S WCI  43
$$

!GMZ750-755-770-775-141600
...Coastal and Buoy Obs...

STATION/POSITION TIME  TEMP    WIND        PRES    VSBY  WAVE
                       AIR SEA DIR/SP/G                  HT/PER
                 (UTC) (F)     (DEG/KT/KT) (MB)    (MI)  (FT/S)
KEATON BEACH     1500   48      60/  7/ 11 1026.8R
CEDAR KEY        1500   50      70/ 11/ 13 1026.9R
C TOWER          NOT AVBL
APALACHICOLA BUO 1450   56 66  100/ 16/ 19 1025.8R         4/ 6
PANAMA CITY BUOY 1450   60 68  110/ 16/ 19 1025.2R         4/ 5
MOBILE BUOY      NOT AVBL
ORANGE BCH AL BU 1450   57 64  110/ 17/ 21 1024.3S         3/ 5
$$




USA.gov is the U.S. government's official web portal to all federal, state and local government web resources and services.